Sioux Falls, SD

1:02 AM CDT on July 24, 2017 (GMT -0500)
Foss

Weather History for KFSD - July, 2015

Change the Weather History Date:

Sunday, July 5, 2015

  Actual Average Record
Temperature  
Mean Temperature 79 °F 73 °F  
Max Temperature 90 °F 84 °F 109 °F (1936)
Min Temperature 67 °F 61 °F 39 °F (1972)
Degree Days  
Heating Degree Days 0 0  
Month to date heating degree days 1 0  
Since 1 June heating degree days 10 51  
Since 1 July heating degree days 1 0  
Cooling Degree Days 14 8  
Month to date cooling degree days 23 39  
Year to date cooling degree days 184 210  
Since 1 June cooling degree days 162 174  
Growing Degree Days 28 (Base 50)    
Moisture  
Dew Point 68 °F    
Average Humidity 65    
Maximum Humidity 79    
Minimum Humidity 50    
Precipitation  
Precipitation 0.11 in 0.11 in 2.29 in (1982)
Month to date precipitation 0.31 0.53  
Year to date precipitation 11.15 13.78  
Snow  
Snow 0.00 in 0.00 in 0.00 in ()
Month to date snowfall 0.0 0.0  
Since 1 June snowfall 0.0 0.0  
Since 1 July snowfall 0.0 0.0  
Snow Depth 0.00 in    
Sea Level Pressure  
Sea Level Pressure 29.80 in    
Wind  
Wind Speed 13 mph (SSE)    
Max Wind Speed 29 mph    
Max Gust Speed 43 mph    
Visibility 9 miles    
Events Rain , Thunderstorm    
T = Trace of Precipitation, MM = Missing Value Source: NWS Daily Summary

Daily Weather History Graph

Daily Weather History Graph

Search for Another Location

Airport or City:

Trip Planner

Search our weather history database for the weather conditions in past years. The results will help you decide how hot, cold, wet, or windy it might be!

Date:

Astronomy

Jul. 05, 2015 Rise Set
Actual Time 5:51 AM CDT 9:11 PM CDT
Civil Twilight 5:16 AM CDT 9:46 PM CDT
Nautical Twilight 4:30 AM CDT 10:32 PM CDT
Astronomical Twilight 3:33 AM CDT 11:29 PM CDT
Moon 11:33 PM CDT (7/5) 10:05 AM CDT (7/5)
Length of Visible Light 16h 30m
Length of Day
15h 19m
Waning Gibbous, 83% of the Moon is Illuminated
Jul 5
Waning Gibbous
Jul 8
Last Quarter
Jul 15
New
Jul 23
First Quarter
Jul 31
Full

Hourly Weather History & Observations

Time (CDT) Temp. Heat Index Dew Point Humidity Pressure Visibility Wind Dir Wind Speed Gust Speed Precip Events Conditions
12:56 AM 71.1 °F - 62.1 °F 73% 29.86 in 10.0 mi South 13.8 mph - N/A   Clear
1:56 AM 71.1 °F - 62.1 °F 73% 29.85 in 10.0 mi South 15.0 mph 21.9 mph N/A   Clear
2:56 AM 70.0 °F - 62.1 °F 76% 29.83 in 10.0 mi SSE 13.8 mph - N/A   Clear
3:56 AM 69.1 °F - 62.1 °F 78% 29.82 in 10.0 mi South 13.8 mph 24.2 mph N/A   Clear
4:56 AM 69.8 °F - 62.6 °F 78% 29.83 in 10.0 mi South 13.8 mph - N/A   Overcast
5:31 AM 70.0 °F - 63.0 °F 78% 29.88 in 10.0 mi SSW 11.5 mph - 0.00 in Rain , Thunderstorm Light Thunderstorms and Rain
5:56 AM 69.1 °F - 63.0 °F 81% 29.88 in 9.0 mi South 10.4 mph - 0.02 in Thunderstorm Thunderstorm
6:56 AM 68.0 °F - 64.0 °F 87% 29.91 in 4.0 mi Calm Calm - 0.05 in Rain , Thunderstorm Thunderstorms and Rain
7:24 AM 68.0 °F - 64.9 °F 90% 29.91 in 4.0 mi East 10.4 mph - 0.04 in Rain Light Rain
7:56 AM 66.9 °F - 64.9 °F 93% 29.90 in 4.0 mi ESE 8.1 mph - 0.04 in Rain Light Rain
8:56 AM 69.1 °F - 66.0 °F 90% 29.86 in 5.0 mi ESE 10.4 mph - 0.00 in   Scattered Clouds
9:56 AM 73.0 °F - 66.9 °F 81% 29.83 in 9.0 mi SSE 12.7 mph - N/A   Partly Cloudy
10:56 AM 75.9 °F - 68.0 °F 76% 29.79 in 10.0 mi South 18.4 mph 25.3 mph N/A   Partly Cloudy
11:56 AM 82.0 °F 85.5 °F 69.1 °F 65% 29.78 in 10.0 mi South 11.5 mph 23.0 mph N/A   Scattered Clouds
12:56 PM 86.0 °F 88.2 °F 66.0 °F 51% 29.76 in 10.0 mi SSW 16.1 mph - N/A   Partly Cloudy
1:56 PM 88.0 °F 90.3 °F 66.0 °F 48% 29.77 in 10.0 mi South 12.7 mph - N/A   Scattered Clouds
2:56 PM 89.1 °F 92.9 °F 68.0 °F 50% 29.77 in 10.0 mi South 16.1 mph 25.3 mph N/A   Scattered Clouds
3:56 PM 87.1 °F 92.0 °F 70.0 °F 57% 29.78 in 10.0 mi SSE 15.0 mph - N/A   Scattered Clouds
4:56 PM 84.9 °F 90.1 °F 71.1 °F 63% 29.77 in 10.0 mi South 12.7 mph - N/A   Mostly Cloudy
5:56 PM 86.0 °F 93.0 °F 73.0 °F 65% 29.75 in 10.0 mi SSE 16.1 mph - N/A   Mostly Cloudy
6:56 PM 84.0 °F 89.6 °F 72.0 °F 67% 29.75 in 10.0 mi South 17.3 mph - N/A   Mostly Cloudy
7:56 PM 84.0 °F 90.2 °F 73.0 °F 69% 29.75 in 10.0 mi South 15.0 mph - N/A   Mostly Cloudy
8:56 PM 82.0 °F 87.4 °F 73.0 °F 74% 29.72 in 10.0 mi South 12.7 mph - N/A   Overcast
9:56 PM 81.0 °F 85.8 °F 73.0 °F 77% 29.73 in 10.0 mi SSE 11.5 mph - N/A   Overcast
10:56 PM 80.6 °F 85.4 °F 73.4 °F 79% 29.73 in 10.0 mi South 11.5 mph - N/A   Overcast
11:02 PM 80.1 °F 84.2 °F 73.0 °F 79% 29.75 in 10.0 mi South 16.1 mph 21.9 mph N/A Thunderstorm Thunderstorm
11:56 PM 80.1 °F 83.8 °F 72.0 °F 76% 29.70 in 10.0 mi ESE 10.4 mph - N/A Thunderstorm Thunderstorm
11:58 PM 80.1 °F 83.8 °F 72.0 °F 76% 29.73 in 10.0 mi ESE 12.7 mph - N/A   Mostly Cloudy